Back to catalog

FENGYUN 1C DEB

AliveSSO
NORAD 30218·DEBRIS·🇨🇳 China

Launched May 10, 1999 from Taiyuan Satellite Launch Center

Loading…

Next Passes (next 24 hours)

TLE

FreshSource: Space-Track

Epoch: Sep 13, 2026, 05:36 UTC

1 30218U 99025WB  26256.23371161  .00003541  00000-0  13120-2 0  9996
2 30218  98.9862 359.5398 0069037 176.7066 213.8093 14.31611976 10318

Track FENGYUN 1C DEB in real time with AllMySat

Download on the App Store